Regional Weather Roundup
Issued by NWS

Home | Current Version | Previous Version | Graphics & Text | Print | Product List | Glossary Off
Versions: 1 2 3 4 5 6 7 8 9 10 11 12 13 14 15 16 17 18 19 20 21 22 23 24 25 26 27 28 29 30 31 32 33 34 35 36 37 38 39 40 41 42 43 44 45 46 47 48 49 50

000
ASUS43 KTOP 231759
RWRKS

WEATHER ROUNDUP FOR KANSAS
NATIONAL WEATHER SERVICE GOODLAND KS
100 PM CDT WED APR 23 2014

NOTE:  "FAIR" INDICATES FEW OR NO CLOUDS BELOW 12,000 FEET WITH NO
SIGNIFICANT WEATHER AND/OR OBSTRUCTIONS TO VISIBILITY.

KSZ001>006-013>018-027>032-041>047-231900-
NORTHWEST KANSAS

CITY           SKY/WX    TMP DP  RH WIND       PRES   REMARKS
GOODLAND       CLOUDY    76  40  27 SW21G29   29.57F
6HR MIN TEMP:  61; 6HR MAX TEMP:  76;

HAYS           FAIR     N/A N/A N/A S33G49    29.60F
HILL CITY      FAIR      81  49  32 SW25G43   29.57F
6HR MIN TEMP:  55; 6HR MAX TEMP:  82;

RUSSELL        FAIR      81  50  33 S37G46    29.63F
6HR MIN TEMP:  57; 6HR MAX TEMP:  81; 6HR PCP: TRACE;

$$

KSZ061>065-074>080-084>089-231900-
SOUTHWEST KANSAS

CITY           SKY/WX    TMP DP  RH WIND       PRES   REMARKS
DODGE CITY     FAIR      78  48  34 S32G40    29.68F
6HR MIN TEMP:  58; 6HR MAX TEMP:  78;

ELKHART          N/A     79  45  30 S22         N/A
GARDEN CITY    FAIR      80  49  33 SW32G44   29.64F
6HR MIN TEMP:  57; 6HR MAX TEMP:  81;

GREAT BEND     FAIR      81  52  36 S32G41    29.65F
LIBERAL        FAIR      79  52  38 S35G40    29.71F
$$

KSZ066>073-081>083-090>101-231900-
SOUTHEAST KANSAS

CITY           SKY/WX    TMP DP  RH WIND       PRES   REMARKS
CHANUTE        FAIR      76  46  34 S17G24    29.87F
6HR MIN TEMP:  54; 6HR MAX TEMP:  76;

COFFEYVILLE    FAIR      79  47  32 S18G29    29.86F
6HR MIN TEMP:  47; 6HR MAX TEMP:  79;

HUTCHINSON     FAIR      82  48  30 S29G37    29.72F
6HR MIN TEMP:  57; 6HR MAX TEMP:  82;

MEDICINE LODGE   N/A     78  50  37 S20G28    29.75F
NEWTON         FAIR      79  46  31 S25G36    29.80F
PARSONS        FAIR      79  46  31 S13G21    29.87F
6HR MIN TEMP:  52; 6HR MAX TEMP:  79;

WICHITA INTL   PTSUNNY   81  50  33 S28G36    29.77F
6HR MIN TEMP:  57; 6HR MAX TEMP:  82;

WICHITA JABRA  FAIR      79  50  36 S25G32    29.78F
6HR MIN TEMP:  54; 6HR MAX TEMP:  79;

$$

KSZ007>012-019>026-033>040-048>060-102>105-231900-
NORTHEAST KANSAS

CITY           SKY/WX    TMP DP  RH WIND       PRES   REMARKS
CONCORDIA      FAIR      69  45  41 SE22G31   29.70F
6HR MIN TEMP:  53; 6HR MAX TEMP:  69; 6HR PCP: TRACE;

EMPORIA        FAIR      74  44  34 S23G33    29.80F
6HR MIN TEMP:  53; 6HR MAX TEMP:  74;

LAWRENCE       FAIR      74  41  30 SE23G30   29.86F
6HR MIN TEMP:  55; 6HR MAX TEMP:  74;

MANHATTAN      FAIR      75  42  30 S21G33    29.76F
6HR MIN TEMP:  56; 6HR MAX TEMP:  75; 6HR PCP:  0.01;

OLATHE IND     FAIR      70  41  34 SE18G30   29.89F
6HR MIN TEMP:  53; 6HR MAX TEMP:  70;

OLATHE EXE     FAIR      67  40  37 SE18G26   29.89F
6HR MIN TEMP:  53; 6HR MAX TEMP:  67;

SALINA         LGT RAIN  77  47  34 S23G39    29.72F
6HR MIN TEMP:  58; 6HR MAX TEMP:  78; 6HR PCP: TRACE;

TOPEKA BILLARD FAIR      73  41  31 SE21      29.83F
6HR MIN TEMP:  57; 6HR MAX TEMP:  73;

TOPEKA FORBES  FAIR      72  40  31 SE25G33   29.82F
6HR MIN TEMP:  55; 6HR MAX TEMP:  72;

$$



USA.gov is the U.S. government's official web portal to all federal, state and local government web resources and services.